Weather History for Valdosta Regional, GA

Change the Weather History Date:

Thursday, November 1, 2012

  Actual Average Record
Temperature  
Mean Temperature 61 °F 64 °F  
Max Temperature 76 °F 76 °F 86 °F (1998)
Min Temperature 46 °F 51 °F 45 °F (2008)
Degree Days  
Heating Degree Days 4 4  
Month to date heating degree days 4 4  
Since 1 July heating degree days 35 47  
Cooling Degree Days 0 3  
Month to date cooling degree days 0 3  
Year to date cooling degree days 3165 2384  
Growing Degree Days 12 (Base 50)    
Moisture  
Dew Point 39 °F    
Average Humidity 53    
Maximum Humidity 86    
Minimum Humidity 19    
Precipitation  
Precipitation 0.00 in 0.10 in 2.45 in (1999)
Month to date precipitation 0.00 0.10  
Year to date precipitation 39.50 44.97  
Sea Level Pressure  
Sea Level Pressure 30.00 in    
Wind  
Wind Speed 2 mph (South)    
Max Wind Speed 12 mph    
Max Gust Speed 20 mph    
Visibility 9 miles    
Events      
T = Trace of Precipitation, MM = Missing Value Source: NWS Daily Summary

Daily Weather History Graph

Daily Weather History Graph

Search for Another Location

Airport:

Trip Planner

Search our weather history database for the weather conditions in past years. The results will help you decide how hot, cold, wet, or windy it might be!

Date:

Astronomy

Nov. 01, 2012 Rise Set
Actual Time 7:48 AM EDT 6:44 PM EDT
Civil Twilight 7:23 AM EDT 7:09 PM EDT
Nautical Twilight 6:54 AM EDT 7:37 PM EDT
Astronomical Twilight 6:26 AM EDT 8:06 PM EDT
Moon 8:49 PM EDT (11/1) 10:11 AM EDT (11/1)
Length of Visible Light 11h 45m
Length of Day
10h 56m
Waning Gibbous, 93% of the Moon is Illuminated
Nov 1
Waning Gibbous
Nov 6
Last Quarter
Nov 13
New
Nov 20
First Quarter
Nov 28
Full

Hourly Weather History & Observations

Time (EDT) Temp. Dew Point Humidity Pressure Visibility Wind Dir Wind Speed Gust Speed Precip Events Conditions
12:53 AM 55.9 °F 46.0 °F 69% 29.97 in 10.0 mi Calm Calm - N/A   Clear
1:53 AM 53.1 °F 46.0 °F 77% 29.98 in 10.0 mi Calm Calm - N/A   Clear
2:53 AM 52.0 °F 46.0 °F 80% 29.98 in 10.0 mi Calm Calm - N/A   Clear
4:53 AM 50.0 °F 45.0 °F 83% 29.98 in 8.0 mi Calm Calm - N/A   Clear
6:53 AM 48.0 °F 43.0 °F 83% 30.00 in 5.0 mi Calm Calm - N/A   Haze
8:53 AM 53.1 °F 48.9 °F 86% 30.04 in 6.0 mi Calm Calm - N/A   Scattered Clouds
10:53 AM 64.9 °F 33.1 °F 31% 30.06 in 10.0 mi North 11.5 mph - N/A   Scattered Clouds
11:53 AM 69.1 °F 30.0 °F 23% 30.05 in 10.0 mi Variable 6.9 mph - N/A   Scattered Clouds
1:53 PM 73.9 °F 28.9 °F 19% 30.00 in 10.0 mi Variable 6.9 mph - N/A   Clear
2:53 PM 73.9 °F 30.0 °F 20% 29.97 in 10.0 mi Variable 4.6 mph - N/A   Clear
3:53 PM 75.0 °F 32.0 °F 21% 29.96 in 10.0 mi Variable 6.9 mph - N/A   Clear
4:53 PM 75.0 °F 34.0 °F 22% 29.95 in 10.0 mi Variable 6.9 mph - N/A   Clear
5:53 PM 71.1 °F 35.1 °F 27% 29.96 in 10.0 mi Variable 5.8 mph - N/A   Clear
6:53 PM 61.0 °F 41.0 °F 48% 29.98 in 10.0 mi Calm Calm - N/A   Clear
7:53 PM 55.0 °F 41.0 °F 59% 30.00 in 10.0 mi Calm Calm - N/A   Clear
8:53 PM 51.1 °F 39.0 °F 63% 30.01 in 10.0 mi Calm Calm - N/A   Clear
9:53 PM 50.0 °F 39.9 °F 68% 30.04 in 10.0 mi Calm Calm - N/A   Clear
10:53 PM 48.0 °F 39.9 °F 74% 30.04 in 10.0 mi Calm Calm - N/A   Clear
11:53 PM 46.9 °F 39.0 °F 74% 30.05 in 10.0 mi Calm Calm - N/A   Clear